Погода в Ликине

Россия / Свердловская область     59°51′02″N   61°39′20″E
темп.,
°C
ветер,
м/с
пор.,
м/с
влажн.,
%
обл.,
%
осадки,
мм/ч
давл.,
гПа
погр.,
м
21 июня, пн
пн2123:00+10с513530 0.0 10181007
02:00+8ссз412635 0.0 1020593
05:00+6ссз3116930 0.0 1022382
08:00+12с46495 0.0 1022779
11:00+15ссз343694 0.0 10221423
14:00+18ссз233188 0.0 10211798
17:00+16зсз3343100 0.0 10211604
20:00+11юв0076100 0.2 102011
22 июня, вт
вт2223:00+10зюз2381100 0.2 102086
02:00+10ююз1179100 0.0 101937
05:00+11юв2375100 0.0 1018136
08:00+13юв2365100 0.0 1018335
11:00+17в215136 0.0 1018744
14:00+20с234723 0.0 10181314
17:00+20ссв354999 0.0 10171423
20:00+16св2668100 0.1 1018297
23 июня, ср
ср2323:00+13сз2387100 0.3 101957
02:00+10с22955 0.0 102031
05:00+8всв22855 0.0 102235
08:00+14всв235699 0.0 1022551
11:00+18св24410 0.0 10221647
14:00+21ссв23315 0.0 10212093
17:00+22ссв23297 0.0 10202243
20:00+19юв11480 0.0 102011
24 июня, чт
чт2423:00+13ююз22585 0.0 101931
02:00+11зюз37655 0.0 1019119
05:00+11зюз310685 0.0 1018181
08:00+19зсз255791 0.0 1016352
11:00+23зсз345220 0.0 1015943
14:00+24зсз245884 0.0 1013625
17:00+25юз2458100 0.0 1012336
20:00+21ююз368281 0.6 1010139
25 июня, пт
пт2523:00+18св2797100 5.1 1010227
02:00+18юз3899100 1.7 1008228
05:00+17з269930 1.7 1007170
08:00+20ссз479194 0.0 1008581
11:00+21с467699 0.1 1009889
14:00+24св3463100 0.1 10091178
17:00+25св336032 0.1 10091148
20:00+22вюв35705 0.0 1009491